Location: Unspecified
(0.0000°N, 0.0000°E)
Time: 14:27:46
(UTC+02:00)

GPS 2-12 Rocket1 - Visible Passes

Search period start: 02 October 2014 00:00
Search period end: 12 October 2014 00:00
Orbit: 591 x 660 km, 20.0° (Epoch: 30 September)

Date Brightness Start Highest point End Pass type
(mag) Time Alt. Az. Time Alt. Az. Time Alt. Az.
02 Oct 5.3 06:35:14 10° SSW 06:38:43 19° SSE 06:42:11 10° ESE visible
02 Oct 3.0 20:26:58 10° WNW 20:31:25 74° NNE 20:35:13 14° ESE visible
02 Oct 5.6 22:11:02 10° W 22:12:23 18° WSW 22:12:23 18° WSW visible
03 Oct 4.7 06:52:42 10° SW 06:56:59 30° SSE 07:01:14 10° E visible
03 Oct 3.4 20:45:09 10° WNW 20:49:34 60° SSW 20:52:34 20° SE visible
04 Oct 5.6 05:32:28 17° SE 05:32:28 17° SE 05:34:37 10° ESE visible
04 Oct 3.9 07:10:26 10° SW 07:15:10 52° SSE 07:19:51 10° E visible
04 Oct 4.3 21:03:41 10° W 21:07:44 33° SSW 21:09:55 22° SSE visible
05 Oct 4.7 05:49:45 28° SSE 05:49:45 28° SSE 05:53:43 10° E visible
05 Oct 5.0 21:22:38 10° WSW 21:25:58 20° SSW 21:27:14 18° S visible
06 Oct 3.8 06:07:04 45° S 06:07:42 48° SSE 06:12:23 10° E visible
06 Oct 5.5 21:42:13 10° SW 21:44:17 13° SSW 21:44:32 13° SSW visible
07 Oct 3.1 06:24:23 46° WSW 06:25:50 85° SSE 06:30:42 10° ENE visible
07 Oct 5.1 20:15:12 10° WSW 20:18:36 21° SSW 20:22:02 10° SSE visible
08 Oct 6.2 05:04:34 12° E 05:04:34 12° E 05:04:52 10° E visible
08 Oct 3.4 06:41:43 29° W 06:43:58 55° NNW 06:48:42 10° ENE visible
08 Oct 5.5 20:34:41 10° SW 20:36:54 14° SSW 20:39:08 10° SSE visible
09 Oct 5.6 05:21:53 19° ENE 05:21:53 19° ENE 05:23:13 10° ENE visible
09 Oct 4.2 06:59:02 16° WNW 07:02:07 32° NNW 07:06:26 10° NE visible
10 Oct 5.0 05:39:10 25° NE 05:39:10 25° NE 05:41:15 10° ENE visible
10 Oct 4.8 07:16:48 10° WNW 07:20:20 20° NNW 07:23:54 10° NNE visible
11 Oct 4.7 05:56:26 26° NNE 05:56:26 26° NNE 05:59:01 10° NE visible
